Meteo Giornale » Osservazioni meteo Repubblica Ceca » Praha-Ruzyne

ore: 11:00 - Osservazioni Meteo Praha-Ruzyne
Lat. 50° 6' N Lon. 14° 15' E Alt. 365 metri s.l.m.

sereno Europe/Prague

7 °C

Sereno

Temp. 24 Ore

2 °C

8 °C

Sud-Ovest

22.2 Km/h

Dew point 2 °C

Umidità 70 %

Visibilità  10 Km

Il sole sorge alle ore 07:00

Il sole tramonta alle ore 17:32

Data e Ora Cielo e Fenomeni T °C DP °C Um. % Pres. hPa Vis. km Vento km/h
Oggi h: 11:00 sereno Sereno 7 2 70 1025 10 SO 22.2
Oggi h: 10:30 sereno Sereno 6 2 75 1025 10 SO 22.2
Oggi h: 10:00 sereno Sereno 6 2 75 1025 10 SO 20.3
Oggi h: 09:30 sereno Sereno 5 2 80 1026 10 SO 18.5
Oggi h: 09:00 sereno Sereno 4 1 80 1026 10 SO 20.3
Oggi h: 08:30 sereno Sereno 4 1 80 1026 10 SO 20.3
Oggi h: 08:00 sereno Sereno 4 1 80 1025 10 SO 18.5
Oggi h: 07:30 sereno Sereno 3 1 86 1025 10 SO 14.8
Oggi h: 07:00 sereno Sereno 3 1 86 1025 10 SO 16.7
Oggi h: 06:30 sereno Sereno 3 1 86 1025 10 SO 14.8
Oggi h: 06:00 sereno Sereno 2 1 93 1025 10 S/SO 16.7
Oggi h: 05:30 sereno Sereno 2 1 93 1025 10 SO 16.7
Oggi h: 05:00 sereno Sereno 2 0 86 1025 10 S/SO 16.7
Oggi h: 04:30 sereno Sereno 2 -0 86 1025 10 S/SO 14.8
Oggi h: 04:00 sereno Sereno 3 1 86 1025 10 SO 14.8
Oggi h: 03:30 sereno Sereno 3 1 86 1025 10 SO 13
Oggi h: 03:00 sereno Sereno 2 0 86 1025 10 S/SO 13
Oggi h: 02:30 poco_nuvoloso Poco Nuvoloso 2 1 93 1025 10 SO 13
Oggi h: 02:00 sereno Sereno 3 1 86 1025 10 S/SO 13
Oggi h: 01:30 sereno Sereno 3 1 86 1025 10 SO 13
Oggi h: 01:00 sereno Sereno 4 1 80 1025 10 SO 11.1
Oggi h: 00:30 sereno Sereno 4 1 80 1025 10 O/SO 11.1
Oggi h: 00:00 sereno Sereno 4 1 80 1025 10 O/SO 13
Ieri h: 23:30 sereno Sereno 3 1 86 1025 10 O/SO 13
Ieri h: 23:00 sereno Sereno 4 1 80 1025 10 O/SO 14.8
Ieri h: 22:30 sereno Sereno 4 1 80 1025 10 O/SO 13
Ieri h: 22:00 sereno Sereno 4 1 80 1025 10 O/SO 14.8
Ieri h: 21:30 sereno Sereno 4 0 75 1025 10 O/SO 14.8
Ieri h: 21:00 sereno Sereno 5 0 70 1024 10 O/SO 16.7
Ieri h: 20:30 sereno Sereno 5 0 70 1024 10 SO 14.8
Ieri h: 20:00 sereno Sereno 5 -0 70 1024 10 SO 13
Ieri h: 19:30 sereno Sereno 6 0 65 1024 10 SO 13
Ieri h: 19:00 sereno Sereno 5 -0 70 1024 10 O/SO 13
Ieri h: 18:30 poco_nuvoloso Poco Nuvoloso 6 -0 65 1023 10 O/SO 9.3
Ieri h: 18:00 poco_nuvoloso Poco Nuvoloso 5 0 70 1023 10 O/SO 11.1
Ieri h: 17:30 poco_nuvoloso Poco Nuvoloso 6 -0 65 1023 10 O/SO 13
Ieri h: 17:00 nuvoloso Nuvoloso 6 -1 60 1023 10 O 13
Ieri h: 16:30 nuvoloso Nuvoloso 8 -0 56 1023 10 O 11.1
Ieri h: 16:00 poco_nuvoloso Poco Nuvoloso 7 -1 56 1023 10 O 13
Ieri h: 15:30 poco_nuvoloso Poco Nuvoloso 8 0 56 1023 10 O/SO 14.8
Ieri h: 15:00 poco_nuvoloso Poco Nuvoloso 8 -0 56 1023 10 O 18.5
Ieri h: 14:30 nuvoloso Nuvoloso 8 0 56 1023 10 O 22.2
Ieri h: 14:00 nuvoloso Nuvoloso 8 1 61 1023 10 O/SO 24
Ieri h: 13:30 nuvoloso Nuvoloso 8 1 61 1023 10 O/SO 18.5
Ieri h: 13:00 nuvoloso Nuvoloso 7 1 65 1023 10 O/SO 22.2
Ieri h: 12:30 nuvoloso Nuvoloso 8 1 61 1023 10 O/SO 22.2
Ieri h: 12:00 poco_nuvoloso Poco Nuvoloso 7 0 60 1023 10 O/SO 22.2
Ieri h: 11:30 sereno Sereno 6 1 70 1023 10 O/SO 20.3
Ieri h: 11:00 sereno Sereno 6 1 70 1023 10 O/SO 18.5